Date,TemperatureHighF,TemperatureAvgF,TemperatureLowF,DewpointHighF,DewpointAvgF,DewpointLowF,HumidityHigh,HumidityAvg,HumidityLow,PressureMaxIn,PressureMinIn,WindSpeedMaxMPH,WindSpeedAvgMPH,GustSpeedMaxMPH,PrecipitationSumIn
2013-2-7,47.5,43.2,41.5,40.9,39.4,31.2,96,87,54,30.25,30.01,4,2,0,0.58
2013-2-8,52.2,43.5,41.1,47.2,41.6,40.2,97,93,79,30.01,29.96,4,1,0,0.00
2013-2-14,53.8,53.8,53.8,35.1,35.1,35.1,49,49,49,30.03,30.03,2,2,0,0.00
2013-2-16,46.9,35.4,28.1,36.0,26.4,15.0,92,71,50,30.09,29.86,4,0,10,0.05
2013-2-17,49.4,32.9,19.4,20.0,12.5,6.0,79,47,18,30.32,30.09,5,1,11,0.07
2013-2-18,58.2,39.3,22.7,27.0,22.9,17.0,87,57,30,30.42,30.25,8,1,13,0.00
2013-2-19,54.6,43.2,37.1,45.0,32.9,14.0,95,70,33,30.25,29.94,8,1,13,0.23
2013-2-20,58.8,40.5,24.1,25.0,19.4,14.0,88,47,20,30.17,30.08,4,1,9,0.00
2013-2-21,61.1,43.8,27.0,39.0,23.5,19.0,81,50,22,30.26,30.11,5,0,7,0.03
2013-2-22,44.1,39.8,38.7,39.0,38.3,37.0,97,94,80,30.30,30.14,7,1,9,0.37
2013-2-23,45.6,41.6,38.1,44.0,40.8,37.0,98,96,93,30.18,29.89,5,0,6,0.38
2013-2-24,69.8,50.7,37.7,48.0,40.9,33.0,99,74,30,30.03,29.90,5,1,8,0.00
2013-2-25,48.3,42.2,36.4,33.0,29.5,27.0,85,62,51,30.17,30.01,8,2,11,0.00
2013-2-26,42.7,37.5,32.9,42.0,36.4,32.0,97,95,86,30.06,29.65,8,2,18,1.26
2013-2-27,58.2,47.5,37.3,41.0,36.0,32.0,86,66,47,29.86,29.71,10,3,19,0.00
2013-2-28,52.7,43.9,32.3,36.0,27.9,24.0,76,55,39,29.94,29.77,7,2,13,0.00
2013-3-1,53.2,40.5,28.5,33.0,28.4,25.0,88,64,40,29.98,29.89,4,0,9,0.00
2013-3-2,46.1,39.8,32.8,40.0,31.8,22.0,93,74,58,29.99,29.88,5,0,8,0.05
2013-3-3,54.1,36.4,25.8,28.0,20.2,16.0,76,54,30,30.07,29.94,3,0,13,0.00
2013-3-4,56.2,40.4,23.3,30.0,20.1,15.0,77,47,23,30.21,30.07,6,0,9,0.00
2013-3-5,55.4,46.4,39.9,47.0,39.4,29.0,97,77,60,30.11,29.69,7,1,14,0.54
2013-3-6,52.3,40.5,33.7,35.0,26.0,19.0,75,58,39,30.16,29.73,8,2,20,0.00
2013-3-7,64.3,42.9,26.5,35.0,28.2,24.0,92,61,29,30.29,30.16,3,0,7,0.00
2013-3-8,69.0,44.5,26.1,32.0,25.0,15.0,91,53,15,30.36,30.21,4,0,10,0.00
2013-3-9,68.8,46.7,27.9,38.0,29.9,24.0,91,57,26,30.39,30.25,5,0,8,0.00
2013-3-10,72.5,51.9,36.3,42.0,36.8,32.0,89,61,31,30.32,30.17,5,0,11,0.00
2013-3-11,67.5,55.2,44.8,55.0,47.8,37.0,96,77,59,30.19,29.84,9,1,14,0.65
2013-3-12,73.2,58.0,44.8,57.0,47.4,31.0,97,72,32,30.02,29.76,5,1,10,0.12
2013-3-13,58.9,44.9,31.4,33.0,27.1,19.0,94,56,24,30.21,30.02,8,1,17,0.00
2013-3-14,54.9,41.1,31.4,26.0,19.6,15.0,67,44,24,30.34,30.20,6,1,10,0.00
2013-3-15,72.3,50.1,28.7,43.0,32.8,20.0,86,55,31,30.24,29.94,12,2,19,0.00
2013-3-16,77.0,64.3,57.8,50.0,41.7,-99.9,58,46,32,29.95,29.76,17,-8,28,0.00
2013-3-17,75.7,64.5,50.4,52.0,45.6,40.0,72,52,37,30.05,29.87,15,3,17,0.00
2013-3-18,49.4,42.4,40.2,42.0,40.1,38.0,97,91,72,30.11,29.90,11,3,17,0.38
2013-3-19,68.7,52.2,41.9,48.0,34.5,20.0,98,62,17,30.08,29.89,9,1,17,0.00
2013-3-20,58.8,49.8,43.6,22.0,16.2,11.0,38,27,20,30.13,29.83,12,2,16,0.00
2013-3-21,52.1,39.4,27.4,31.0,19.4,9.0,89,50,20,30.00,29.84,7,1,14,0.00
2013-3-22,48.2,37.6,25.5,27.0,20.8,16.0,81,54,32,30.13,30.00,6,1,14,0.00
2013-3-23,45.2,43.6,41.3,43.0,35.8,27.0,94,76,50,30.08,30.01,4,1,5,0.06
2013-3-25,45.4,40.3,34.9,25.1,20.2,-99.9,62,48,38,29.98,29.77,15,-19,21,0.00
2013-3-26,49.4,38.6,28.0,26.0,23.8,22.0,82,58,37,30.25,29.97,10,2,16,0.00
2013-3-27,58.9,43.4,28.7,26.0,24.2,21.0,84,50,26,30.32,30.19,6,1,11,0.00
2013-3-28,63.6,43.3,27.1,28.0,24.4,19.0,90,54,20,30.36,30.20,5,1,10,0.00
2013-3-29,62.0,45.8,28.7,41.0,29.5,24.0,88,58,26,30.38,30.25,7,1,11,0.00
2013-3-30,68.0,55.0,44.8,46.0,41.9,39.0,90,65,37,30.25,30.06,7,1,11,0.00
2013-3-31,69.8,58.8,50.5,57.0,52.9,46.0,98,82,56,30.07,29.85,10,2,18,0.47
2013-4-1,73.9,62.8,50.8,57.0,45.2,36.0,95,60,27,29.95,29.84,11,2,16,0.02
2013-4-2,71.4,64.3,55.9,34.0,28.8,23.0,30,26,18,30.12,30.01,7,2,15,0.00
2013-4-3,61.6,53.7,48.2,32.0,24.4,-99.9,44,33,24,30.27,30.12,15,-10,17,0.00
2013-4-4,52.2,42.9,36.9,37.0,32.4,25.0,95,70,42,30.24,30.02,15,4,23,0.36
2013-4-5,41.4,37.5,34.2,40.0,36.3,33.0,98,95,94,30.03,29.95,4,0,7,0.00
2013-4-6,40.4,38.2,36.9,37.0,35.8,35.0,93,90,86,30.20,30.11,1,0,1,0.00
2013-4-7,72.9,61.3,53.9,49.0,40.5,-99.9,82,54,37,30.14,30.11,6,-45,13,0.00
2013-4-8,78.0,64.0,51.3,58.0,52.3,48.0,95,69,42,30.18,30.06,9,2,14,0.00
2013-4-9,82.5,68.3,52.8,60.0,54.8,51.0,95,65,40,30.20,30.10,10,2,15,0.00
2013-4-10,85.4,72.9,60.6,62.0,58.0,56.0,87,62,39,30.11,29.94,8,2,16,0.00
2013-4-11,80.6,69.1,58.4,66.0,60.5,56.0,96,75,53,29.97,29.72,7,2,14,0.02
2013-4-13,59.6,58.8,57.4,44.0,40.8,40.0,58,52,49,30.03,30.01,0,0,2,0.00
2013-4-14,70.6,58.5,45.0,54.0,43.6,-99.9,90,63,36,30.09,29.98,10,-10,11,0.03
2013-4-15,71.4,61.5,55.4,61.0,56.9,53.0,97,86,61,30.20,29.97,6,1,8,0.08
2013-4-16,80.8,67.5,59.2,63.0,59.0,56.0,92,76,48,30.29,30.17,4,0,6,0.00
2013-4-17,84.0,67.1,59.5,65.0,61.6,58.0,97,84,49,30.24,30.11,9,1,11,0.27
2013-4-18,82.2,67.9,58.0,65.0,61.4,58.0,99,82,46,30.15,29.97,4,1,10,0.00
2013-4-19,73.1,63.4,50.5,66.0,60.1,49.0,95,89,75,29.96,29.77,15,4,22,0.64
2013-4-20,67.7,52.9,41.7,50.0,35.4,28.0,96,55,28,30.29,29.94,11,1,17,0.01
2013-4-21,63.7,47.1,38.4,39.0,36.0,33.0,90,68,37,30.43,30.29,8,2,14,0.00
2013-4-25,76.1,65.9,50.7,46.0,39.8,34.0,58,40,23,30.29,30.15,6,1,9,0.00
2013-4-26,74.3,59.2,43.6,48.0,37.8,33.0,72,48,26,30.44,30.29,9,1,16,0.00
2013-4-27,62.3,56.5,53.6,57.0,52.9,46.0,97,88,63,30.36,30.25,3,0,6,0.28
2013-4-28,54.2,53.2,51.3,54.0,52.6,51.0,98,98,96,30.27,30.07,4,1,8,1.55
2013-4-29,74.4,61.5,53.7,62.0,57.1,53.0,99,87,56,30.09,29.92,6,1,11,0.08
2013-4-30,77.1,64.2,51.6,63.0,58.5,51.0,99,83,53,30.16,29.98,7,1,9,0.00
2013-5-1,67.3,61.6,56.1,58.0,55.7,54.0,95,81,68,30.26,30.17,12,2,16,0.00
2013-5-2,60.7,58.5,56.5,58.0,56.4,55.0,97,93,87,30.28,30.22,10,3,14,0.02
2013-5-3,64.4,58.8,55.8,58.0,55.3,53.0,97,88,74,30.22,30.08,9,2,16,0.01
2013-5-4,58.8,53.9,50.7,54.0,49.1,43.0,97,84,64,30.08,29.95,11,3,21,0.48
2013-5-5,53.5,51.8,49.1,53.0,51.1,48.0,98,97,96,29.98,29.84,8,3,19,1.74
2013-5-6,65.3,57.2,48.3,57.0,50.9,46.0,99,82,53,29.93,29.82,5,1,14,0.00
2013-5-7,70.7,56.5,43.1,56.0,49.3,42.0,98,80,49,29.97,29.88,6,0,12,0.15
2013-5-8,76.8,62.9,48.6,60.0,54.5,48.0,99,77,48,30.04,29.91,12,1,14,0.00
2013-5-9,83.0,66.7,51.4,61.0,55.9,50.0,98,73,37,30.10,30.01,5,1,11,0.00
2013-5-10,81.0,69.3,55.7,64.0,59.8,55.0,98,75,49,30.08,29.95,8,1,19,0.00
2013-5-11,76.7,69.5,61.9,65.0,61.4,58.0,95,76,61,29.97,29.80,9,2,16,0.18
2013-5-12,77.3,64.1,52.6,61.0,46.0,32.0,95,58,20,30.06,29.86,10,1,16,0.00
2013-5-13,72.3,56.1,39.4,41.0,36.5,31.0,95,54,24,30.20,30.00,6,1,9,0.00
2013-5-14,75.1,59.5,39.7,52.0,43.5,38.0,95,60,34,30.28,30.07,9,2,12,0.00
2013-5-15,88.5,81.1,65.2,61.0,59.5,57.0,75,49,38,30.10,29.91,7,2,15,0.00
2013-5-16,82.2,72.5,59.3,62.0,58.8,55.0,87,63,45,30.02,29.92,11,1,11,0.00
2013-5-17,85.4,72.8,59.3,65.0,61.0,58.0,96,69,41,30.09,30.00,7,1,10,0.00
2013-5-18,75.1,68.5,63.5,69.0,65.2,60.0,96,89,77,30.12,30.04,4,0,6,0.24
2013-5-19,76.5,69.7,65.2,69.0,66.4,64.0,98,89,73,30.11,30.00,4,0,7,0.20
2013-5-20,85.6,72.4,62.5,69.0,66.2,62.0,98,83,55,30.11,30.00,2,0,10,0.00
2013-5-21,91.4,75.8,64.4,72.0,67.1,64.0,98,77,44,30.04,29.91,8,1,8,0.00
2013-5-22,85.0,73.5,62.8,72.0,66.2,61.0,97,79,58,29.99,29.84,8,1,15,0.21
2013-5-23,84.0,72.1,62.8,69.0,63.3,56.0,98,77,47,29.96,29.79,7,1,13,0.17
2013-5-24,74.7,66.4,55.0,59.0,47.1,35.0,97,55,24,30.22,29.90,19,2,20,0.00
2013-5-25,78.2,64.6,50.3,52.0,44.4,38.0,83,50,28,30.31,30.12,5,1,9,0.00
2013-5-26,77.7,63.9,52.8,54.0,49.5,43.0,88,63,34,30.30,30.12,4,0,7,0.00
2013-5-27,84.1,69.2,52.5,61.0,56.4,51.0,98,68,40,30.27,30.12,6,1,8,0.00
2013-5-28,84.7,73.2,62.0,64.0,61.9,60.0,94,70,47,30.23,30.11,4,1,10,0.00
2013-5-29,86.3,74.1,59.4,65.0,61.8,58.0,97,68,44,30.24,30.11,7,1,11,0.00
2013-6-5,68.9,68.6,68.4,68.0,67.9,67.0,97,97,96,30.00,29.98,1,0,4,0.80
2013-6-6,74.3,69.0,64.8,72.0,68.1,64.0,98,97,90,29.98,29.80,4,0,8,0.46
2013-6-7,84.1,71.0,67.1,73.0,69.1,67.0,99,94,69,29.83,29.67,5,0,10,0.39
2013-6-8,85.0,74.6,65.2,70.0,68.0,65.0,99,81,56,30.08,29.82,5,1,11,0.00
2013-6-9,86.4,72.3,66.1,73.0,69.0,65.0,98,90,61,30.13,30.03,4,0,13,2.24
2013-6-10,77.3,71.5,68.1,73.0,69.2,66.0,98,92,79,30.06,29.91,6,2,14,0.53
2013-6-11,91.6,77.8,68.4,73.0,69.2,63.0,98,78,40,30.00,29.90,9,1,12,0.10
2013-6-12,93.1,79.8,64.8,78.0,70.9,64.0,99,77,45,30.01,29.89,5,1,10,0.00
2013-6-13,91.5,80.0,69.3,75.0,71.2,68.0,94,76,48,29.91,29.69,11,1,18,0.06
2013-6-14,86.6,74.0,60.3,68.0,59.7,56.0,96,65,37,30.03,29.78,8,1,13,0.00
2013-6-15,85.6,72.3,57.8,65.0,60.1,57.0,98,69,44,30.14,30.02,5,1,11,0.00
2013-6-16,87.0,75.7,63.9,70.0,65.1,61.0,94,72,44,30.15,29.97,5,1,11,0.00
2013-6-17,85.0,74.5,68.7,75.0,70.5,67.0,97,88,67,30.04,29.91,7,1,15,0.80
2013-6-18,82.9,73.8,69.8,76.0,71.1,69.0,98,92,71,29.96,29.75,7,1,13,0.21
2013-6-19,82.3,76.0,67.2,70.0,67.2,65.0,97,75,61,30.10,29.98,6,1,8,0.03
2013-6-20,84.1,73.3,64.8,69.0,66.3,64.0,98,80,54,30.21,30.09,4,1,11,0.02
2013-6-21,85.7,73.2,63.2,67.0,64.3,62.0,98,76,46,30.27,30.13,5,1,9,0.02
2013-6-22,88.6,74.6,61.1,68.0,64.3,60.0,98,73,44,30.23,30.07,4,0,10,0.01
2013-6-23,87.5,75.1,67.2,74.0,69.6,66.0,98,84,57,30.21,30.07,3,0,9,0.02
2013-6-24,88.1,77.1,68.2,74.0,70.5,68.0,99,82,57,30.21,30.05,9,1,10,0.01
2013-6-25,89.7,77.2,70.6,77.0,71.2,69.0,97,83,53,30.14,29.99,8,1,36,0.01
2013-6-26,90.4,77.6,70.6,75.0,71.9,70.0,98,84,58,30.04,29.90,6,1,12,0.50
2013-6-27,89.0,78.0,70.6,79.0,73.3,68.0,98,86,64,29.95,29.70,11,1,25,0.72
2013-6-28,94.3,79.5,68.4,75.0,71.5,68.0,99,79,47,29.78,29.59,5,1,17,0.01
2013-6-29,90.0,78.2,69.6,73.0,69.5,66.0,97,77,47,29.70,29.57,6,1,10,0.00
2013-6-30,86.4,75.4,69.6,74.0,69.9,68.0,94,83,54,29.82,29.68,5,0,7,0.00
2013-7-1,83.7,74.4,68.9,73.0,69.7,67.0,97,86,66,29.95,29.80,4,0,10,0.17
2013-7-2,82.0,73.9,69.7,75.0,71.4,69.0,98,92,73,30.12,29.95,6,1,11,0.46
2013-7-3,81.7,73.6,66.9,74.0,70.8,66.0,97,91,74,30.21,30.10,4,0,11,0.49
2013-7-4,82.3,70.9,66.3,76.0,69.6,66.0,99,96,79,30.22,30.12,3,0,10,1.43
2013-7-5,87.6,74.2,68.8,74.0,71.1,68.0,99,91,61,30.23,30.15,8,0,13,0.49
2013-7-6,85.2,75.2,71.4,76.0,72.8,71.0,99,92,68,30.21,30.08,6,0,11,0.18
2013-7-7,85.1,76.7,72.2,75.0,72.7,71.0,99,88,66,30.17,30.06,5,1,10,0.02
2013-7-8,88.8,76.1,71.3,76.0,72.2,70.0,98,89,61,30.18,30.09,6,0,10,0.47
2013-7-9,90.5,78.3,69.8,77.0,73.1,69.0,99,85,59,30.18,30.00,4,1,10,0.37
2013-7-10,87.5,74.9,69.4,78.0,72.3,69.0,99,92,67,30.13,29.94,6,0,16,0.91
2013-7-11,82.0,75.7,71.9,76.0,73.7,71.0,99,93,80,29.96,29.86,2,0,5,0.01
2013-7-12,87.5,74.1,64.7,76.0,70.5,63.0,98,89,64,29.99,29.86,5,0,10,0.32
2013-7-13,78.3,71.3,65.2,73.0,68.8,64.0,98,92,80,30.10,29.99,6,1,10,0.01
2013-7-14,78.5,73.3,69.5,74.0,71.7,69.0,98,94,82,30.26,30.09,4,1,13,0.42
2013-7-15,85.3,75.9,69.4,74.0,71.3,69.0,99,87,64,30.32,30.23,5,1,9,0.00
2013-7-16,94.7,80.5,69.5,75.0,72.4,69.0,99,79,50,30.30,30.19,3,0,6,0.00
2013-7-17,94.0,78.8,68.7,76.0,72.1,67.0,98,82,48,30.25,30.11,6,0,18,0.47
2013-7-18,91.8,78.7,68.5,77.0,72.1,68.0,99,82,52,30.19,30.04,2,0,4,0.00
2013-7-19,92.8,80.4,70.8,77.0,73.5,70.0,99,81,55,30.11,29.95,5,0,7,0.00
2013-7-20,86.5,77.1,73.0,77.0,73.6,71.0,98,89,70,30.03,29.93,6,1,11,0.13
2013-7-21,90.0,75.7,70.5,77.0,72.6,70.0,99,91,60,30.01,29.92,7,0,13,0.52
2013-7-22,86.9,76.7,70.2,76.0,72.0,70.0,99,86,63,30.00,29.81,7,1,13,0.02
2013-7-23,90.8,78.1,69.4,75.0,71.2,68.0,97,81,50,29.89,29.77,4,1,9,0.00
2013-7-24,90.1,79.4,69.0,76.0,71.6,68.0,98,78,57,29.83,29.75,5,0,8,0.00
2013-7-25,88.5,74.3,64.2,73.0,68.4,62.0,98,83,57,30.01,29.82,14,1,17,1.13
2013-7-26,85.5,74.2,65.5,74.0,70.0,65.0,99,88,63,30.09,29.98,3,0,5,0.00
2013-7-27,82.7,75.6,71.4,75.0,72.0,69.0,98,89,73,30.02,29.88,3,0,8,0.50
2013-7-28,88.1,76.0,66.9,73.0,69.4,66.0,99,82,54,30.01,29.87,8,1,13,0.01
2013-7-29,89.7,75.8,64.3,71.0,68.0,63.0,98,79,50,30.15,30.00,2,0,5,0.00
2013-7-30,88.2,75.1,62.8,73.0,68.0,62.0,96,79,57,30.21,30.11,5,0,9,0.00
2013-7-31,81.3,74.7,71.2,75.0,71.6,70.0,97,90,78,30.16,29.96,3,0,6,0.06
2013-8-1,86.9,76.7,72.0,77.0,72.7,69.0,96,88,66,29.99,29.86,4,0,11,0.06
2013-8-2,91.5,78.2,66.9,74.0,70.6,66.0,99,80,51,30.03,29.91,3,0,6,0.00
2013-8-3,89.2,79.5,72.1,74.0,71.6,68.0,98,79,52,30.01,29.92,5,0,10,0.00
2013-8-4,89.6,78.7,69.5,73.0,69.1,63.0,97,75,53,30.02,29.92,7,1,11,0.00
2013-8-5,87.5,75.9,67.6,72.0,68.1,64.0,92,77,57,30.07,29.96,6,1,8,0.00
2013-8-6,85.6,75.1,69.0,76.0,71.0,66.0,98,87,67,30.05,29.95,4,1,11,1.23
2013-8-7,77.7,73.7,71.8,76.0,72.4,71.0,98,95,92,30.07,30.00,3,0,6,0.37
2013-8-8,86.0,76.6,71.9,76.0,73.0,71.0,99,89,68,30.07,30.00,4,0,8,0.00
2013-8-9,89.6,77.1,71.6,78.0,74.1,71.0,99,91,64,30.08,30.00,4,0,15,0.09
2013-8-10,91.9,79.7,72.6,78.0,74.3,71.0,99,85,56,30.10,30.03,5,1,13,0.01
2013-8-11,91.8,76.6,70.1,77.0,72.4,69.0,98,88,56,30.12,30.05,7,1,12,0.01
2013-8-12,92.4,78.4,71.0,76.0,73.7,70.0,99,87,57,30.08,29.95,2,0,13,0.31
2013-8-13,89.1,78.5,71.8,77.0,73.3,70.0,98,85,63,29.97,29.78,7,1,13,0.01
2013-8-14,80.6,73.1,68.9,71.0,67.3,62.0,97,83,65,30.05,29.86,4,0,6,0.00
2013-8-15,73.8,68.4,63.8,64.0,61.0,58.0,90,77,62,30.14,30.05,7,1,14,0.00
2013-8-16,72.0,65.6,61.4,64.0,61.7,60.0,96,87,73,30.17,30.08,5,1,9,0.11
2013-8-17,68.3,65.0,62.6,64.0,62.2,60.0,97,90,82,30.19,30.13,7,1,13,0.06
2013-8-18,76.9,69.1,64.3,71.0,67.2,64.0,98,93,80,30.23,30.15,2,0,4,0.17
2013-8-19,77.1,70.8,66.9,71.0,68.9,66.0,98,94,80,30.20,30.08,3,0,6,0.61
2013-8-20,81.8,72.8,67.4,73.0,69.8,67.0,98,90,71,30.20,30.11,3,0,4,0.01
2013-8-21,83.9,73.5,70.0,75.0,71.6,69.0,99,94,72,30.23,30.12,3,0,4,0.31
2013-8-22,89.0,74.6,67.9,76.0,71.3,67.0,99,90,60,30.16,30.03,11,0,17,0.83
2013-8-23,91.8,75.7,67.7,74.0,69.9,67.0,99,85,50,30.06,29.96,7,0,19,0.01
2013-8-24,82.1,72.3,65.1,69.0,64.4,61.0,97,78,53,30.29,30.06,5,2,15,0.00
2013-8-25,80.7,68.5,57.7,65.0,60.9,57.0,98,79,50,30.39,30.27,6,0,9,0.00
2013-8-26,86.7,70.5,57.6,69.0,62.4,57.0,99,79,48,30.34,30.12,3,0,6,0.00
2013-8-27,91.5,76.3,65.6,72.0,67.3,64.0,95,76,43,30.16,30.00,3,0,6,0.00
2013-8-28,91.6,78.5,67.7,74.0,70.3,67.0,98,78,51,30.03,29.93,3,0,8,0.00
2013-8-29,93.5,80.4,69.1,77.0,72.4,68.0,98,79,50,29.95,29.87,6,1,9,0.00
2013-8-30,87.4,77.8,73.7,75.0,71.9,69.0,93,82,61,30.04,29.92,4,0,10,0.00
2013-8-31,87.8,75.5,69.6,78.0,71.8,69.0,98,89,64,29.96,29.87,4,0,14,0.28
2013-9-1,88.2,76.7,68.8,77.0,72.7,68.0,99,88,67,29.92,29.81,8,1,12,0.00
2013-9-2,89.2,79.1,73.0,75.0,73.0,70.0,97,83,62,29.90,29.81,2,0,5,0.00
2013-9-3,89.9,75.9,67.2,73.0,69.2,65.0,97,82,51,29.97,29.82,8,0,9,0.03
2013-9-4,89.7,75.7,65.8,72.0,67.8,65.0,98,78,51,30.09,29.96,3,0,7,0.00
2013-9-5,91.6,76.5,65.7,73.0,68.1,63.0,99,78,45,30.12,30.04,4,0,5,0.00
2013-9-6,84.7,72.5,62.3,66.0,63.3,61.0,97,75,48,30.18,30.07,6,1,11,0.00
2013-9-7,86.5,72.6,62.3,68.0,64.9,62.0,98,79,50,30.14,29.99,4,0,7,0.00
2013-9-8,88.6,74.6,62.8,73.0,67.3,62.0,99,81,51,30.00,29.93,2,0,5,0.00
2013-9-9,88.9,76.1,66.3,72.0,68.4,66.0,98,79,51,30.13,30.00,5,0,8,0.00
2013-9-10,90.9,76.2,65.3,74.0,68.8,65.0,98,80,49,30.23,30.13,3,0,6,0.00
2013-9-11,90.1,76.5,65.2,72.0,68.3,64.0,99,78,47,30.22,30.08,4,0,7,0.00
2013-9-12,90.5,75.6,68.6,73.0,69.7,67.0,97,83,52,30.09,29.86,4,0,13,0.00
2013-9-13,86.6,74.6,65.4,70.0,63.4,53.0,97,71,44,29.89,29.78,7,1,11,0.00
2013-9-14,79.6,67.0,57.1,60.0,55.1,51.0,94,67,49,30.11,29.90,5,1,16,0.00
2013-9-15,81.6,67.5,57.4,68.0,61.9,56.0,97,84,60,30.22,30.11,5,0,7,0.00
2013-9-16,87.3,73.6,63.5,72.0,64.8,62.0,98,77,44,30.14,30.05,3,0,5,0.00
2013-9-17,73.5,69.0,65.2,62.0,59.2,57.0,79,71,62,30.29,30.14,9,2,14,0.00
2013-9-18,75.1,67.1,60.4,62.0,58.8,56.0,93,75,59,30.29,30.17,3,1,10,0.00
2013-9-19,84.5,70.0,58.2,68.0,62.8,57.0,98,80,53,30.19,30.08,3,0,6,0.00
2013-9-20,87.5,73.2,63.0,68.0,65.0,62.0,98,78,49,30.09,29.91,4,0,11,0.00
2013-9-21,73.6,68.3,63.7,71.0,66.7,63.0,98,95,87,29.93,29.66,7,1,11,0.59
2013-9-22,79.4,66.7,56.6,64.0,60.4,56.0,99,83,53,29.91,29.74,4,0,7,0.00
2013-9-23,78.0,65.7,59.0,62.0,59.0,56.0,96,80,53,30.06,29.91,5,0,9,0.00
2013-9-24,75.9,66.0,55.9,64.0,60.7,55.0,98,84,62,30.08,29.94,3,0,4,0.00
2013-9-25,68.6,64.1,62.1,64.0,62.4,61.0,98,94,81,29.94,29.87,2,0,6,0.27
2013-9-26,75.3,64.6,56.8,63.0,60.1,55.0,99,86,61,30.04,29.89,6,1,10,0.00
2013-9-27,76.5,64.1,53.4,60.0,56.6,53.0,98,79,52,30.18,30.05,6,1,10,0.01
2013-9-28,72.8,62.7,53.2,58.0,55.9,52.0,98,80,58,30.26,30.15,6,1,10,0.00
2013-9-29,73.3,63.0,54.1,60.0,56.5,52.0,95,80,57,30.19,30.04,4,0,7,0.00
2013-9-30,78.2,65.2,56.0,62.0,58.5,55.0,98,81,52,30.11,30.00,2,0,5,0.00
2013-10-1,83.1,66.6,53.8,63.0,58.0,53.0,98,78,42,30.16,30.05,3,0,8,0.00
2013-10-2,83.2,68.3,56.7,66.0,61.3,56.0,98,81,49,30.16,30.07,2,0,7,0.00
2013-10-3,83.8,70.3,58.2,67.0,62.3,57.0,98,79,49,30.14,30.07,4,0,8,0.00
2013-10-4,85.7,73.7,64.6,68.0,58.8,-99.9,95,67,51,30.16,30.07,3,-40,6,0.00
2013-10-5,88.1,71.6,59.1,69.0,63.9,58.0,98,80,46,30.14,30.03,2,0,5,0.00
2013-10-6,83.4,70.4,60.3,68.0,64.2,60.0,98,82,53,30.05,29.87,4,0,8,0.00
2013-10-7,76.8,68.1,58.1,70.0,64.1,54.0,98,87,66,29.99,29.80,4,0,8,0.17
2013-10-8,69.5,62.4,57.6,54.0,51.7,48.0,87,69,56,30.20,29.99,10,2,24,0.17
2013-10-9,72.6,60.9,51.7,53.0,47.7,41.0,93,64,38,30.24,30.11,5,1,15,0.00
2013-10-10,78.2,61.3,45.4,58.0,52.2,45.0,98,75,44,30.15,30.00,4,0,9,0.00
2013-10-11,80.7,66.5,54.5,60.0,56.0,52.0,97,72,38,30.03,29.93,6,0,10,0.00
2013-10-12,78.8,65.5,54.3,63.0,58.7,53.0,98,81,53,30.10,29.98,3,0,7,0.00
2013-10-13,75.4,67.9,63.6,65.0,63.1,61.0,95,85,68,30.21,30.10,5,1,10,0.00
2013-10-14,69.2,65.7,63.5,63.0,61.6,60.0,94,87,77,30.23,30.14,7,2,11,0.00
2013-10-15,69.0,62.4,56.6,61.0,58.1,56.0,96,86,70,30.19,30.07,6,1,12,0.00
2013-10-16,73.2,61.9,51.4,61.0,56.5,51.0,98,84,60,30.09,29.98,2,0,5,0.00
2013-10-17,68.2,64.2,60.4,66.0,62.6,59.0,97,94,84,29.98,29.88,4,0,8,0.13
2013-10-18,70.7,61.5,51.5,65.0,57.4,51.0,98,87,66,30.04,29.90,3,0,7,0.13
2013-10-19,63.5,60.1,51.4,61.0,57.4,50.0,98,91,76,29.97,29.87,5,0,11,0.01
2013-10-20,67.3,53.8,42.6,51.0,47.1,42.0,98,81,51,30.11,29.95,2,0,7,0.01
2013-10-21,69.3,55.1,43.2,56.0,50.0,42.0,98,84,61,30.18,30.03,3,0,9,0.01
2013-10-22,67.4,60.7,54.5,58.0,55.5,50.0,97,84,57,30.05,29.82,4,0,8,0.00
2013-10-23,66.2,54.5,39.3,55.0,42.5,33.0,96,69,31,30.07,29.76,9,1,16,0.00
2013-10-24,62.8,46.9,33.3,43.0,37.5,32.0,97,74,43,30.20,30.08,5,0,9,0.00
2013-10-25,53.7,43.1,34.3,40.0,32.8,28.0,95,70,41,30.42,30.20,6,1,12,0.00
2013-10-26,58.6,43.8,28.2,38.0,33.3,27.0,97,70,44,30.41,30.13,6,1,12,0.00
2013-10-27,70.7,54.4,39.0,53.0,45.7,37.0,97,74,50,30.17,30.08,4,0,8,0.00
2013-10-28,67.5,58.9,52.3,59.0,54.6,51.0,97,86,64,30.27,30.13,3,0,8,0.03
2013-10-29,72.4,59.3,48.2,58.0,53.4,47.0,98,82,53,30.35,30.25,2,0,7,0.03
2013-10-30,78.5,63.1,53.4,60.0,56.5,52.0,98,81,52,30.30,30.17,6,0,12,0.00
2013-10-31,72.3,63.8,54.0,64.0,58.7,53.0,97,84,69,30.19,29.90,5,1,11,0.00
2013-11-1,68.9,64.9,58.9,65.0,61.6,58.0,96,89,77,29.90,29.68,5,2,12,0.09
2013-11-2,69.2,56.5,43.3,58.0,46.3,37.0,98,73,35,30.03,29.74,5,1,13,0.01
2013-11-3,63.3,48.7,39.1,43.0,39.8,37.0,96,75,42,30.39,30.03,5,0,9,0.01
2013-11-4,58.5,47.4,37.6,39.0,36.6,35.0,95,69,42,30.54,30.38,5,1,11,0.00
2013-11-5,59.3,47.8,36.6,49.0,40.1,32.0,90,76,57,30.57,30.44,9,1,17,0.00
2013-11-6,69.3,57.2,51.2,57.0,51.9,49.0,96,83,62,30.44,30.15,6,1,9,0.00
2013-11-7,70.9,56.2,48.2,61.0,47.3,33.0,98,75,42,30.17,29.99,11,2,16,0.01
2013-11-8,62.2,48.6,34.9,34.0,28.7,25.0,84,49,25,30.34,30.17,11,2,22,0.01
2013-11-9,59.8,45.6,31.3,39.0,32.2,29.0,92,63,34,30.42,30.26,5,0,8,0.00
2013-11-10,74.1,54.9,42.2,44.0,38.5,36.0,88,59,27,30.27,30.15,3,0,8,0.00
2013-11-11,63.5,48.5,36.5,37.0,32.3,28.0,88,57,30,30.38,30.19,4,0,9,0.00
2013-11-12,66.1,45.6,30.1,41.0,31.9,15.0,91,62,31,30.50,30.10,14,2,22,0.00
2013-11-13,50.7,34.8,22.5,23.0,17.6,13.0,80,54,24,30.60,30.49,2,0,6,0.00
2013-11-14,60.0,39.4,24.5,26.0,22.7,19.0,90,58,21,30.54,30.37,5,1,8,0.00
2013-11-15,58.3,46.0,30.7,48.0,36.4,24.0,96,73,30,30.39,30.22,1,0,4,0.09
2013-11-16,63.5,54.8,48.2,57.0,51.9,47.0,97,90,76,30.29,30.20,3,0,6,0.09
2013-11-17,65.5,59.2,55.3,61.0,56.9,53.0,98,92,81,30.23,29.93,2,0,5,0.36
2013-11-18,75.7,63.0,52.8,63.0,50.0,33.0,99,68,32,30.00,29.87,8,2,18,0.01
2013-11-19,57.3,49.6,41.5,33.0,28.7,26.0,68,46,32,30.26,29.99,6,1,16,0.01
2013-11-20,52.3,45.3,37.8,34.0,30.8,29.0,72,58,44,30.46,30.26,9,2,14,0.00
2013-11-21,52.2,47.7,44.7,48.0,40.5,33.0,96,77,61,30.49,30.40,7,2,11,0.02
2013-11-22,60.3,54.5,49.1,57.0,53.2,48.0,98,95,90,30.42,30.15,4,0,8,0.02
2013-11-23,59.4,54.5,41.1,57.0,44.9,24.0,97,72,38,30.23,30.09,9,2,15,0.00
2013-11-24,42.9,35.2,27.7,25.0,15.3,11.0,61,45,31,30.57,30.23,10,2,21,0.00
2013-11-25,42.7,33.6,22.5,17.0,13.7,9.0,77,47,27,30.61,30.36,7,0,10,0.00
2013-11-26,45.9,38.7,31.9,45.0,36.6,16.0,98,93,41,30.36,29.67,5,2,13,0.00
2013-11-27,46.5,39.0,29.7,46.0,31.1,17.0,98,75,49,30.26,29.58,9,2,18,0.02
2013-11-28,47.8,33.5,21.3,28.0,22.1,17.0,92,66,39,30.53,30.26,5,0,11,0.02
2013-11-29,55.0,36.9,25.4,31.0,26.7,24.0,97,72,30,30.62,30.50,3,0,8,0.00
2013-11-30,47.6,36.3,31.7,29.0,25.9,23.0,84,68,39,30.66,30.42,7,1,13,0.00
2013-12-1,57.2,42.2,32.1,41.0,33.3,27.0,95,73,43,30.41,30.05,3,0,7,0.00
2013-12-2,59.2,45.6,31.5,48.0,40.1,31.0,98,83,50,30.05,29.85,4,0,7,0.00
2013-12-3,57.1,53.1,49.8,53.0,51.3,48.0,97,94,85,29.97,29.89,3,0,4,0.13
2013-12-4,61.4,56.7,53.3,61.0,56.2,53.0,98,98,97,30.09,29.96,4,0,5,0.05
2013-12-5,67.8,64.1,60.6,67.0,63.5,60.0,98,98,96,30.11,30.01,5,1,12,0.08
2013-12-6,74.7,69.2,66.9,67.0,65.2,64.0,97,87,70,30.06,29.96,9,3,16,0.02
2013-12-7,66.8,57.0,49.7,65.0,51.8,43.0,97,83,68,30.38,29.99,12,2,13,0.12
2013-12-8,49.4,39.9,36.0,44.0,38.4,35.0,97,94,81,30.41,30.30,7,2,10,0.11
2013-12-9,45.4,41.0,36.0,45.0,40.5,35.0,98,98,97,30.32,30.09,2,0,4,0.33
2013-12-10,55.8,46.8,36.9,54.0,39.5,22.0,99,78,47,30.35,29.95,10,1,13,0.09
2013-12-11,52.8,37.7,25.5,31.0,27.1,23.0,96,69,36,30.50,30.34,4,0,8,0.09
2013-12-12,50.6,38.0,28.0,28.0,22.1,17.0,92,57,28,30.46,30.34,5,0,6,0.00
2013-12-13,53.9,37.7,23.4,34.0,25.6,20.0,90,65,33,30.43,30.29,5,0,9,0.00
2013-12-14,43.1,41.3,39.3,41.0,37.2,31.0,97,86,66,30.30,29.86,6,1,11,0.63
2013-12-15,52.2,43.6,30.9,46.0,37.2,28.0,98,80,54,30.16,29.80,6,1,10,0.01
2013-12-16,60.5,42.7,27.2,35.0,30.4,26.0,97,67,31,30.23,30.14,8,1,11,0.01
2013-12-17,63.6,50.1,38.8,37.0,33.9,26.0,75,56,35,30.19,29.99,11,2,19,0.00
2013-12-18,54.9,41.4,30.2,28.0,24.0,20.0,80,53,28,30.33,30.09,5,0,9,0.00
2013-12-19,61.5,43.7,29.8,31.0,26.8,19.0,88,58,20,30.38,30.26,5,0,10,0.00
2013-12-20,58.8,48.0,37.9,47.0,40.1,31.0,88,75,60,30.28,30.18,4,0,7,0.00
2013-12-21,65.5,55.9,49.0,63.0,53.6,46.0,98,92,87,30.17,30.01,3,0,7,0.02
2013-12-22,69.4,64.1,59.8,66.0,62.4,59.0,98,94,87,30.07,29.98,7,1,16,1.06
2013-12-23,59.7,54.8,45.8,59.0,51.9,37.0,98,90,72,30.18,30.00,4,1,9,0.15
2013-12-24,46.3,39.4,28.6,39.0,27.3,17.0,80,63,45,30.46,30.18,9,2,14,0.15
2013-12-25,42.5,31.9,24.3,24.0,16.8,12.0,72,56,31,30.59,30.44,6,1,10,0.00
2013-12-26,56.3,38.5,27.4,30.0,24.9,20.0,86,62,32,30.43,30.29,2,0,5,0.00
2013-12-27,52.9,37.5,27.7,29.0,25.8,22.0,91,67,33,30.52,30.39,4,0,6,0.00
2013-12-28,48.6,37.7,26.1,40.0,31.1,25.0,95,80,49,30.46,30.14,2,0,8,0.21
2013-12-29,60.9,46.6,39.7,53.0,44.2,39.0,98,91,73,30.14,29.84,5,1,12,0.19
2013-12-30,53.7,44.2,34.7,46.0,40.2,34.0,98,86,67,30.16,29.99,4,0,10,0.19
2013-12-31,50.3,40.9,32.7,39.0,31.3,26.0,94,71,41,30.40,30.16,3,0,6,0.00
2014-1-1,49.6,38.7,29.9,37.0,31.5,28.0,94,77,52,30.43,30.19,2,0,5,0.00
2014-1-2,46.2,42.7,31.4,45.0,39.3,17.0,97,88,56,30.18,29.70,7,1,17,0.12